Location: Moscow
(55.7500°N, 37.5830°E)
Time: 03:38:34
(UTC+03:00)

Kosmos-337 - Pass Details

Date: 08 July 2022
Orbit: 1467 x 1552 km, 74.0° (Epoch: 13 August)

Event Time Altitude Azimuth Distance (km) Brightness Sun altitude
Rises 02:21:03 0° 333° (NNW) 4,737 ? -8.5°
Reaches altitude 10° 02:24:26 10° 323° (NW) 3,748 ? -8.3°
Maximum altitude 02:32:00 31° 267° (W) 2,471 ? -7.9°
Drops below altitude 10° 02:39:29 10° 211° (SSW) 3,695 ? -7.4°
Enters shadow 02:40:00 - 209° (SSW) 3,838 ? -7.3°
